TimeEDT,TemperatureF,Dew PointF,Humidity,Sea Level PressureIn,VisibilityMPH,Wind Direction,Wind SpeedMPH,Gust SpeedMPH,PrecipitationIn,Events,Conditions,WindDirDegrees,DateUTC
12:14 AM,41.4,32.0,69,30.25,10.0,North,9.2,-,N/A,,Clear,10,2013-05-24 04:14:00
12:34 AM,40.5,32.2,72,30.26,10.0,North,8.1,-,N/A,,Clear,10,2013-05-24 04:34:00
12:55 AM,40.3,32.2,73,30.26,10.0,North,8.1,-,N/A,,Clear,10,2013-05-24 04:55:00
1:14 AM,40.5,31.1,69,30.27,10.0,NNE,9.2,-,N/A,,Clear,20,2013-05-24 05:14:00
1:34 AM,40.1,30.6,69,30.27,10.0,NNE,10.4,17.3,N/A,,Clear,30,2013-05-24 05:34:00
1:55 AM,39.6,29.8,68,30.27,10.0,NNE,11.5,16.1,N/A,,Clear,20,2013-05-24 05:55:00
2:14 AM,39.2,28.8,66,30.27,10.0,NNE,12.7,18.4,N/A,,Clear,30,2013-05-24 06:14:00
2:34 AM,38.7,28.9,68,30.27,10.0,NNE,12.7,18.4,N/A,,Clear,30,2013-05-24 06:34:00
2:54 AM,38.5,28.2,67,30.27,10.0,NNE,13.8,19.6,N/A,,Clear,20,2013-05-24 06:54:00
3:14 AM,38.3,28.2,67,30.28,10.0,NNE,13.8,-,N/A,,Clear,30,2013-05-24 07:14:00
3:35 AM,38.3,27.9,66,30.28,10.0,NNE,12.7,-,N/A,,Clear,30,2013-05-24 07:35:00
3:54 AM,38.1,28.0,67,30.29,10.0,NNE,11.5,-,N/A,,Clear,30,2013-05-24 07:54:00
4:14 AM,37.9,27.9,67,30.30,10.0,NNE,11.5,-,N/A,,Clear,20,2013-05-24 08:14:00
4:35 AM,37.8,28.2,68,30.30,10.0,NNE,8.1,-,N/A,,Clear,20,2013-05-24 08:35:00
4:54 AM,37.4,28.4,70,30.31,10.0,North,5.8,-,N/A,,Clear,10,2013-05-24 08:54:00
5:14 AM,36.7,28.8,73,30.31,10.0,North,6.9,-,N/A,,Clear,360,2013-05-24 09:14:00
5:35 AM,36.7,28.8,73,30.32,10.0,North,8.1,-,N/A,,Clear,360,2013-05-24 09:35:00
5:54 AM,37.4,28.9,71,30.33,10.0,North,6.9,-,N/A,,Clear,360,2013-05-24 09:54:00
6:14 AM,37.6,28.9,71,30.33,10.0,North,6.9,-,N/A,,Clear,360,2013-05-24 10:14:00
6:35 AM,38.3,29.1,70,30.33,10.0,North,8.1,-,N/A,,Clear,10,2013-05-24 10:35:00
6:54 AM,39.0,29.3,68,30.34,10.0,NNE,6.9,-,N/A,,Clear,20,2013-05-24 10:54:00
7:14 AM,39.4,30.0,69,30.35,10.0,North,8.1,-,N/A,,Clear,10,2013-05-24 11:14:00
7:35 AM,39.7,29.5,67,30.36,10.0,NNE,6.9,-,N/A,,Clear,20,2013-05-24 11:35:00
7:54 AM,40.5,29.8,66,30.36,10.0,NNE,10.4,-,N/A,,Clear,20,2013-05-24 11:54:00
8:14 AM,41.7,28.6,60,30.38,10.0,NNE,10.4,-,N/A,,Clear,30,2013-05-24 12:14:00
8:35 AM,41.9,27.9,58,30.38,10.0,North,8.1,-,N/A,,Clear,10,2013-05-24 12:35:00
8:54 AM,42.4,28.0,57,30.38,10.0,North,9.2,-,N/A,,Clear,360,2013-05-24 12:54:00
9:14 AM,42.8,28.4,57,30.38,10.0,North,8.1,-,N/A,,Clear,360,2013-05-24 13:14:00
9:35 AM,43.5,28.6,56,30.39,10.0,NNE,11.5,-,N/A,,Clear,30,2013-05-24 13:35:00
9:54 AM,44.8,28.8,53,30.39,10.0,NNE,8.1,-,N/A,,Clear,20,2013-05-24 13:54:00
10:14 AM,45.7,28.8,52,30.39,10.0,NNE,10.4,-,N/A,,Clear,20,2013-05-24 14:14:00
10:35 AM,46.0,28.8,51,30.39,10.0,NE,9.2,-,N/A,,Clear,40,2013-05-24 14:35:00
10:54 AM,46.4,28.6,50,30.38,10.0,NNE,6.9,-,N/A,,Clear,30,2013-05-24 14:54:00
11:14 AM,46.9,28.9,50,30.37,10.0,North,5.8,-,N/A,,Clear,360,2013-05-24 15:14:00
11:35 AM,46.9,28.0,48,30.37,10.0,NNE,4.6,-,N/A,,Clear,20,2013-05-24 15:35:00
11:54 AM,47.7,29.1,49,30.37,10.0,NNE,8.1,-,N/A,,Clear,30,2013-05-24 15:54:00
12:14 PM,49.1,29.3,46,30.37,10.0,North,9.2,-,N/A,,Clear,10,2013-05-24 16:14:00
12:35 PM,49.1,28.2,44,30.37,10.0,North,10.4,-,N/A,,Clear,360,2013-05-24 16:35:00
12:54 PM,50.0,28.9,44,30.37,10.0,North,10.4,16.1,N/A,,Clear,360,2013-05-24 16:54:00
1:14 PM,50.4,28.9,44,30.37,10.0,WNW,5.8,-,N/A,,Clear,290,2013-05-24 17:14:00
1:35 PM,47.8,32.9,56,30.37,10.0,WSW,10.4,-,N/A,,Clear,250,2013-05-24 17:35:00
1:54 PM,47.3,33.3,58,30.37,10.0,WSW,8.1,-,N/A,,Clear,250,2013-05-24 17:54:00
2:14 PM,47.7,33.4,58,30.37,10.0,WSW,11.5,-,N/A,,Clear,240,2013-05-24 18:14:00
2:35 PM,48.2,35.2,61,30.38,10.0,WSW,9.2,-,N/A,,Clear,240,2013-05-24 18:35:00
2:54 PM,48.6,34.2,58,30.37,10.0,WSW,13.8,-,N/A,,Clear,240,2013-05-24 18:54:00
3:14 PM,48.7,32.7,54,30.36,10.0,WSW,11.5,-,N/A,,Clear,240,2013-05-24 19:14:00
3:35 PM,50.4,34.5,55,30.35,10.0,WSW,5.8,-,N/A,,Clear,250,2013-05-24 19:35:00
3:54 PM,50.4,34.3,54,30.35,10.0,WSW,8.1,19.6,N/A,,Clear,240,2013-05-24 19:54:00
4:14 PM,50.9,35.6,56,30.35,10.0,WSW,5.8,-,N/A,,Clear,250,2013-05-24 20:14:00
4:35 PM,50.2,34.7,55,30.35,10.0,West,11.5,16.1,N/A,,Clear,260,2013-05-24 20:35:00
4:54 PM,50.0,35.1,57,30.35,10.0,WSW,8.1,-,N/A,,Clear,250,2013-05-24 20:54:00
5:15 PM,50.0,36.0,59,30.35,10.0,WSW,8.1,-,N/A,,Clear,250,2013-05-24 21:15:00
5:34 PM,49.5,35.4,58,30.34,10.0,WSW,4.6,-,N/A,,Clear,250,2013-05-24 21:34:00
5:54 PM,49.3,36.7,62,30.33,10.0,SW,8.1,-,N/A,,Clear,230,2013-05-24 21:54:00
6:15 PM,49.1,37.0,63,30.33,10.0,WSW,5.8,-,N/A,,Clear,240,2013-05-24 22:15:00
6:34 PM,48.9,37.6,65,30.33,10.0,SW,6.9,-,N/A,,Clear,230,2013-05-24 22:34:00
6:54 PM,48.7,38.1,67,30.33,10.0,WSW,5.8,-,N/A,,Clear,240,2013-05-24 22:54:00
7:15 PM,48.2,38.8,70,30.32,10.0,WSW,6.9,-,N/A,,Clear,240,2013-05-24 23:15:00
7:34 PM,48.4,38.5,69,30.32,10.0,WSW,5.8,-,N/A,,Clear,250,2013-05-24 23:34:00
7:54 PM,47.7,38.5,70,30.32,10.0,West,5.8,-,N/A,,Clear,260,2013-05-24 23:54:00
8:15 PM,46.8,38.8,74,30.32,10.0,West,5.8,-,N/A,,Clear,270,2013-05-25 00:15:00
8:34 PM,46.0,39.6,78,30.32,10.0,West,5.8,-,N/A,,Clear,270,2013-05-25 00:34:00
8:54 PM,45.9,39.7,79,30.32,10.0,Calm,Calm,-,N/A,,Clear,0,2013-05-25 00:54:00
9:15 PM,44.8,39.9,83,30.32,10.0,WSW,4.6,-,N/A,,Clear,250,2013-05-25 01:15:00
9:34 PM,43.5,39.7,87,30.33,10.0,Calm,Calm,-,N/A,,Clear,0,2013-05-25 01:34:00
9:54 PM,43.0,39.0,86,30.33,10.0,Calm,Calm,-,N/A,,Clear,0,2013-05-25 01:54:00
10:15 PM,41.5,38.7,89,30.33,10.0,North,4.6,-,N/A,,Clear,360,2013-05-25 02:15:00
10:34 PM,41.7,37.2,84,30.34,10.0,NNW,4.6,-,N/A,,Clear,340,2013-05-25 02:34:00
10:54 PM,43.0,34.9,73,30.35,10.0,NW,6.9,-,N/A,,Clear,320,2013-05-25 02:54:00
11:15 PM,43.0,33.8,70,30.35,10.0,Calm,Calm,-,N/A,,Clear,0,2013-05-25 03:15:00
11:34 PM,39.9,35.1,83,30.35,10.0,NW,4.6,-,N/A,,Clear,320,2013-05-25 03:34:00
11:54 PM,40.3,35.1,82,30.34,10.0,NNW,4.6,-,N/A,,Clear,340,2013-05-25 03:54:00